When you browse on this site, cookies collect data to enhance your experience and personalize the content and advertising you see.
Visit our Privacy Policy to learn more. By continuing to use the site, you agree to this use of cookies and data.
  • In Österreich
  • Länderverzeichnis
  • Für 7 Tage
  • Wassertemperatur
  • Wetterkarte
  • News
  • Widgets
  • user-avatar
    Anmelden

    Stündliche Wetter Kopylniki

    Heute, 27 Januar, Montag

    Zeit Temperatur Niederschläge Wind Luftdruck Luftfeuchtigkeit
    00:00 0°C° 0 mm 4 m/S 739 mmHg 90%
    01:00 0°C° 0 mm 4 m/S 740 mmHg 91%
    02:00 +1°C° 0 mm 3 m/S 740 mmHg 89%
    03:00 0°C° 0 mm 3 m/S 740 mmHg 90%
    04:00 0°C° 0 mm 3 m/S 740 mmHg 91%
    05:00 0°C° 0 mm 3 m/S 740 mmHg 93%
    06:00 +1°C° 0 mm 2 m/S 740 mmHg 94%
    07:00 +1°C° 0 mm 2 m/S 740 mmHg 95%
    08:00 -1°C° 0 mm 2 m/S 740 mmHg 94%
    09:00 -1°C° 0 mm 2 m/S 740 mmHg 94%
    10:00 -1°C° 0 mm 2 m/S 740 mmHg 95%
    11:00 -1°C° 0 mm 2 m/S 740 mmHg 95%
    12:00 -1°C° 0.1 mm 2 m/S 740 mmHg 96%
    13:00 +1°C° 0.1 mm 1 m/S 740 mmHg 96%
    14:00 +1°C° 0 mm 1 m/S 740 mmHg 97%
    15:00 +1°C° 0.2 mm 1 m/S 739 mmHg 97%
    16:00 +1°C° 0.2 mm 1 m/S 739 mmHg 97%
    17:00 +1°C° 0.2 mm 1 m/S 739 mmHg 98%
    18:00 +1°C° 0.5 mm 1 m/S 739 mmHg 98%
    19:00 +1°C° 0.5 mm 1 m/S 739 mmHg 98%
    20:00 +1°C° 0.5 mm 1 m/S 739 mmHg 98%
    21:00 +1°C° 0.4 mm 1 m/S 739 mmHg 98%
    22:00 +1°C° 0.4 mm 1 m/S 739 mmHg 98%
    23:00 +1°C° 0.4 mm 1 m/S 738 mmHg 98%

    Morgen, 28 Januar, Dienstag

    Zeit Temperatur Niederschläge Wind Luftdruck Luftfeuchtigkeit
    00:00 0°C° 0.3 mm 1 m/S 738 mmHg 98%
    01:00 0°C° 0.3 mm 1 m/S 738 mmHg 98%
    02:00 0°C° 0.3 mm 1 m/S 738 mmHg 98%
    03:00 0°C° 0 mm 1 m/S 738 mmHg 97%
    04:00 0°C° 0 mm 1 m/S 737 mmHg 97%
    05:00 0°C° 0 mm 1 m/S 737 mmHg 97%
    06:00 -1°C° 0 mm 1 m/S 737 mmHg 97%
    07:00 -1°C° 0 mm 1 m/S 737 mmHg 96%
    08:00 -1°C° 0 mm 1 m/S 737 mmHg 96%
    09:00 -2°C° 0 mm 2 m/S 737 mmHg 94%
    10:00 -2°C° 0 mm 2 m/S 737 mmHg 92%
    11:00 -1°C° 0 mm 2 m/S 737 mmHg 90%
    12:00 -1°C° 0 mm 2 m/S 737 mmHg 90%
    13:00 -1°C° 0 mm 2 m/S 737 mmHg 89%
    14:00 -1°C° 0 mm 2 m/S 737 mmHg 88%
    15:00 -1°C° 0 mm 2 m/S 736 mmHg 91%
    16:00 -1°C° 0 mm 2 m/S 736 mmHg 93%
    17:00 -2°C° 0 mm 2 m/S 736 mmHg 95%
    18:00 -2°C° 0 mm 2 m/S 736 mmHg 95%
    19:00 -2°C° 0 mm 2 m/S 736 mmHg 95%
    20:00 -2°C° 0 mm 2 m/S 736 mmHg 95%
    21:00 -1°C° 0 mm 2 m/S 736 mmHg 95%
    22:00 -1°C° 0 mm 2 m/S 736 mmHg 96%
    23:00 -1°C° 0 mm 2 m/S 735 mmHg 96%

    übermorgen, 29 Januar, Mittwoch

    Zeit Temperatur Niederschläge Wind Luftdruck Luftfeuchtigkeit
    00:00 -1°C° 0.1 mm 3 m/S 735 mmHg 96%
    01:00 -1°C° 0.1 mm 3 m/S 735 mmHg 96%
    02:00 -1°C° 0.1 mm 3 m/S 735 mmHg 96%
    03:00 -1°C° 0.1 mm 3 m/S 734 mmHg 96%
    04:00 -1°C° 0.1 mm 3 m/S 734 mmHg 95%
    05:00 -1°C° 0.1 mm 3 m/S 733 mmHg 95%
    06:00 -1°C° 0 mm 3 m/S 733 mmHg 95%
    07:00 -3°C° 0 mm 4 m/S 733 mmHg 95%
    08:00 -3°C° 0 mm 4 m/S 733 mmHg 94%
    09:00 -3°C° 0 mm 4 m/S 733 mmHg 93%
    10:00 -2°C° 0 mm 4 m/S 733 mmHg 92%
    11:00 -2°C° 0 mm 4 m/S 733 mmHg 91%
    12:00 -1°C° 0 mm 4 m/S 733 mmHg 90%
    13:00 -1°C° 0 mm 4 m/S 732 mmHg 88%
    14:00 0°C° 0 mm 4 m/S 732 mmHg 87%
    15:00 -1°C° 0 mm 4 m/S 732 mmHg 88%
    16:00 -1°C° 0 mm 4 m/S 731 mmHg 90%
    17:00 -1°C° 0 mm 4 m/S 731 mmHg 92%
    18:00 -1°C° 0 mm 4 m/S 731 mmHg 92%
    19:00 0°C° 0 mm 4 m/S 731 mmHg 93%
    20:00 0°C° 0 mm 4 m/S 731 mmHg 94%
    21:00 0°C° 0 mm 4 m/S 730 mmHg 95%
    22:00 -1°C° 0 mm 4 m/S 730 mmHg 96%
    23:00 -1°C° 0 mm 4 m/S 730 mmHg 96%

    30 Januar, Donnerstag

    Zeit Temperatur Niederschläge Wind Luftdruck Luftfeuchtigkeit
    00:00 -1°C° 0.1 mm 4 m/S 730 mmHg 96%
    01:00 -1°C° 0.1 mm 4 m/S 729 mmHg 96%
    02:00 -1°C° 0.1 mm 4 m/S 729 mmHg 96%
    03:00 -1°C° 0 mm 4 m/S 729 mmHg 95%
    04:00 0°C° 0 mm 4 m/S 729 mmHg 94%
    05:00 0°C° 0 mm 4 m/S 728 mmHg 94%
    06:00 0°C° 0.1 mm 4 m/S 728 mmHg 95%
    07:00 0°C° 0.1 mm 4 m/S 728 mmHg 96%
    08:00 0°C° 0.1 mm 4 m/S 728 mmHg 96%
    09:00 0°C° 0.2 mm 4 m/S 728 mmHg 96%
    10:00 0°C° 0.2 mm 4 m/S 728 mmHg 96%
    11:00 0°C° 0.2 mm 4 m/S 728 mmHg 96%
    12:00 +1°C° 0.2 mm 3 m/S 729 mmHg 96%
    13:00 +1°C° 0.2 mm 3 m/S 729 mmHg 96%
    14:00 +1°C° 0.2 mm 3 m/S 729 mmHg 97%
    15:00 +1°C° 0.2 mm 3 m/S 729 mmHg 97%
    16:00 +1°C° 0.2 mm 3 m/S 729 mmHg 97%
    17:00 +1°C° 0.2 mm 3 m/S 729 mmHg 97%
    18:00 +1°C° 0.1 mm 2 m/S 730 mmHg 97%
    19:00 +1°C° 0.1 mm 2 m/S 730 mmHg 97%
    20:00 +1°C° 0.1 mm 2 m/S 730 mmHg 97%
    21:00 +1°C° 0.1 mm 2 m/S 730 mmHg 97%
    22:00 +2°C° 0.1 mm 1 m/S 730 mmHg 97%
    23:00 +1°C° 0.1 mm 1 m/S 731 mmHg 97%

    31 Januar, Freitag

    Zeit Temperatur Niederschläge Wind Luftdruck Luftfeuchtigkeit
    00:00 +1°C° 0.1 mm 1 m/S 731 mmHg 98%
    01:00 +1°C° 0.1 mm 1 m/S 731 mmHg 98%
    02:00 0°C° 0.1 mm 0 m/S 731 mmHg 98%
    03:00 0°C° 0.2 mm 0 m/S 731 mmHg 98%
    04:00 0°C° 0.2 mm 0 m/S 731 mmHg 98%
    05:00 0°C° 0.2 mm 0 m/S 731 mmHg 98%
    06:00 0°C° 0.2 mm 0 m/S 731 mmHg 98%
    07:00 0°C° 0.2 mm 0 m/S 731 mmHg 98%
    08:00 0°C° 0.2 mm 0 m/S 731 mmHg 98%
    09:00 +1°C° 0.2 mm 1 m/S 731 mmHg 97%
    10:00 +1°C° 0.2 mm 1 m/S 731 mmHg 97%
    11:00 +1°C° 0.2 mm 1 m/S 731 mmHg 96%
    12:00 +1°C° 0.1 mm 1 m/S 731 mmHg 95%
    13:00 +2°C° 0.1 mm 1 m/S 730 mmHg 93%
    14:00 +2°C° 0.1 mm 1 m/S 730 mmHg 92%
    15:00 +1°C° 0 mm 1 m/S 730 mmHg 93%
    16:00 +1°C° 0 mm 1 m/S 730 mmHg 94%
    17:00 0°C° 0 mm 1 m/S 730 mmHg 95%
    18:00 0°C° 0 mm 1 m/S 730 mmHg 95%
    19:00 -2°C° 0 mm 2 m/S 730 mmHg 96%
    20:00 -2°C° 0 mm 2 m/S 730 mmHg 96%
    21:00 -2°C° 0.2 mm 2 m/S 730 mmHg 96%
    22:00 -2°C° 0.2 mm 2 m/S 730 mmHg 96%
    23:00 -2°C° 0.2 mm 2 m/S 730 mmHg 97%

    1 Februar, Samstag

    Zeit Temperatur Niederschläge Wind Luftdruck Luftfeuchtigkeit
    00:00 -2°C° 0.2 mm 2 m/S 731 mmHg 97%
    01:00 -2°C° 0.2 mm 2 m/S 731 mmHg 97%
    02:00 -1°C° 0.2 mm 2 m/S 731 mmHg 97%
    03:00 -1°C° 0.2 mm 2 m/S 731 mmHg 98%
    04:00 +1°C° 0.2 mm 2 m/S 731 mmHg 98%
    05:00 +1°C° 0.2 mm 2 m/S 731 mmHg 98%
    06:00 +1°C° 0.1 mm 2 m/S 731 mmHg 98%
    07:00 +1°C° 0.1 mm 2 m/S 731 mmHg 98%
    08:00 +1°C° 0.1 mm 2 m/S 731 mmHg 98%
    09:00 +1°C° 0 mm 2 m/S 731 mmHg 97%
    10:00 0°C° 0 mm 3 m/S 731 mmHg 96%
    11:00 +1°C° 0 mm 3 m/S 731 mmHg 95%
    12:00 0°C° 0.1 mm 3 m/S 731 mmHg 95%
    13:00 0°C° 0.1 mm 3 m/S 731 mmHg 96%
    14:00 0°C° 0.1 mm 3 m/S 730 mmHg 97%
    15:00 0°C° 0 mm 3 m/S 730 mmHg 97%
    16:00 +1°C° 0 mm 3 m/S 730 mmHg 97%
    17:00 +1°C° 0 mm 3 m/S 730 mmHg 97%
    18:00 +1°C° 0.2 mm 3 m/S 730 mmHg 96%
    19:00 +1°C° 0.2 mm 3 m/S 730 mmHg 96%
    20:00 0°C° 0.2 mm 4 m/S 729 mmHg 95%
    21:00 +1°C° 0.2 mm 3 m/S 729 mmHg 96%
    22:00 +2°C° 0.2 mm 3 m/S 729 mmHg 96%
    23:00 +2°C° 0.2 mm 3 m/S 729 mmHg 97%
    Mehr zeigen